FENGYUN1
1 25730U 99025A   06019.57652805 -.00000307  00000-0 -14522-3 0  6307
2 25730 098.6167 017.8099 0013896 201.8965 158.1621 14.11804218345048
OKEAN-0
1 25860U 99039A   06019.54760481  .00000031  00000-0  12082-4 0  6451
2 25860 097.7415 040.7454 0000455 091.0417 269.0833 14.73331413349867
NOAA-16
1 26536U 00055A   06019.01826638  .00000348  00000-0  21351-3 0  7125
2 26536 099.0474 344.0457 0010488 176.4988 183.6259 14.12309757274521
NOAA-17
1 27453U 02032A   06019.11543947  .00000043  00000-0  37930-4 0  7359
2 27453 098.6391 094.1240 0012259 146.1263 214.0718 14.23742774185560
NOAA-18
1 28654U 05018A   06019.28772187 -.00000074  00000-0 -17107-4 0  3264
2 28654 098.7738 325.8805 0013637 284.9226 075.0440 14.10921370 34389
HUBBLE
1 20580U 90037B   06019.85376089  .00000515  00000-0  27466-4 0  5284
2 20580 028.4690 296.7917 0003374 054.7490 305.3411 14.99949434662808
UARS
1 21701U 91063B   06018.82986985  .00005704  00000-0  11862-3 0 06679
2 21701 056.9781 015.3121 0102579 283.8365 075.1326 15.41849934786251
PO-34
1 25520U 98064B   06018.90925827  .00000464  00000-0  13381-4 0 03918
2 25520 028.4611 309.7161 0005186 058.3972 301.7132 15.16587154399369
ISS
1 25544U 98067A   06019.84784722  .00008548  00000-0  62646-4 0  1847
2 25544 051.6429 230.2519 0010332 172.1009 015.7627 15.74100697409786
OO-38
1 26063U 00004C   06018.74371665 -.00000005  00000-0  18391-4 0 05274
2 26063 100.1907 282.8878 0037163 167.8436 192.3649 14.35750335313237
NO-45
1 26932U 01043D   06019.41071214 -.00000155  00000-0 -28373-4 0  2214
2 26932 067.0568 030.5695 0006107 289.8563 070.1878 14.29512253224709
UWE-1
1 28892U 05043C   06019.61542669  .00000135  00000-0  38373-4 0  2963
2 28892 098.1814 280.1117 0016475 275.8135 084.1189 14.59293091 12306
XI-V
1 28895U 05043F   06019.61218834  .00000124  00000-0  36159-4 0  2788
2 28895 098.1845 280.1371 0017062 275.8159 084.1100 14.59348857 12184
NCUBE2
1 28897U 05043H   06017.75405196  .00000142  00000-0  39628-4 0 00177
2 28897 098.1775 278.3055 0016253 285.0869 074.8531 14.59502267004180
